KC8BSD Weather Reports


time (UTC)temp
C
wind
direction
speed
KPH
gust
KPH
rain 1hr
cm
rain 24hr
cm
rain mn
cm
humidity
%
barometer
mb
20260506204648 12 259 1.6 1.6 0.00 0.00 0.00 45 1013.8
20260506204145 12 280 1.6 3.2 0.00 0.00 0.00 45 1013.9
20260506203643 11 262 0.0 0.0 0.00 0.00 0.00 47 1013.7
20260506203140 11 18 4.8 4.8 0.00 0.00 0.00 47 1013.9
20260506202638 11 331 1.6 3.2 0.00 0.00 0.00 45 1013.9
20260506202133 12 257 3.2 4.8 0.00 0.00 0.00 46 1013.9
20260506201631 11 272 1.6 1.6 0.00 0.00 0.00 47 1013.8
20260506201127 11 298 1.6 1.6 0.00 0.00 0.00 45 1013.6
20260506200624 11 254 3.2 4.8 0.00 0.00 0.00 47 1014.0
20260506200121 11 27 6.4 9.7 0.00 0.00 0.00 46 1014.1
20260506195617 11 5 3.2 3.2 0.00 0.00 0.00 46 1014.0
20260506195114 11 56 4.8 8.0 0.00 0.00 0.00 45 1014.0
20260506194611 11 27 3.2 3.2 0.00 0.00 0.00 46 1014.1
20260506194108 11 259 1.6 1.6 0.00 0.00 0.00 45 1014.2
20260506193605 12 247 3.2 4.8 0.00 0.00 0.00 45 1014.2
20260506193103 12 39 4.8 4.8 0.00 0.00 0.00 44 1014.1
20260506192559 11 305 3.2 3.2 0.00 0.00 0.00 47 1014.2
20260506192055 12 20 4.8 4.8 0.00 0.00 0.00 45 1014.2
20260506191552 11 47 3.2 3.2 0.00 0.00 0.00 48 1014.1
20260506191048 11 43 3.2 3.2 0.00 0.00 0.00 46 1014.4
20260506190545 11 276 0.0 1.6 0.00 0.00 0.00 46 1014.3
20260506190042 11 40 0.0 1.6 0.00 0.00 0.00 46 1014.3
20260506185539 11 318 3.2 3.2 0.00 0.00 0.00 48 1014.3
20260506185036 11 321 1.6 1.6 0.00 0.00 0.00 47 1014.2
20260506184533 11 232 1.6 1.6 0.00 0.00 0.00 51 1014.1
20260506184031 10 319 1.6 3.2 0.00 0.00 0.00 48 1014.1
20260506183526 10 260 0.0 0.0 0.00 0.00 0.00 50 1013.9
20260506183023 11 267 1.6 1.6 0.00 0.00 0.00 51 1014.0
20260506182520 11 284 3.2 4.8 0.00 0.00 0.00 48 1014.0
20260506182017 11 261 0.0 1.6 0.00 0.00 0.00 49 1014.1
20260506181515 11 297 3.2 4.8 0.00 0.00 0.00 47 1014.0
20260506181012 11 354 1.6 3.2 0.00 0.00 0.00 48 1014.2
20260506180509 11 14 1.6 3.2 0.00 0.00 0.00 46 1013.9
20260506180006 11 295 0.0 1.6 0.00 0.00 0.00 46 1014.1
20260506175502 11 318 1.6 1.6 0.00 0.00 0.00 48 1014.0
20260506174958 11 59 1.6 4.8 0.00 0.00 0.00 50 1014.2
20260506174456 11 268 3.2 3.2 0.00 0.00 0.00 49 1014.2
20260506173946 11 246 1.6 1.6 0.00 0.00 0.00 51 1014.5
20260506173444 11 46 6.4 8.0 0.00 0.00 0.00 48 1014.4
20260506172941 11 43 3.2 4.8 0.00 0.00 0.00 47 1014.5
20260506172439 11 14 4.8 4.8 0.00 0.00 0.00 48 1014.7
20260506171935 11 256 3.2 4.8 0.00 0.00 0.00 48 1014.6
20260506171432 11 7 4.8 4.8 0.00 0.00 0.00 47 1014.6
20260506170930 11 264 0.0 0.0 0.00 0.00 0.00 53 1014.3
20260506170425 11 258 1.6 3.2 0.00 0.00 0.00 53 1014.3
20260506165919 11 282 1.6 3.2 0.00 0.00 0.00 51 1014.4
20260506165417 11 304 0.0 1.6 0.00 0.00 0.00 55 1014.4
20260506164912 10 28 4.8 4.8 0.00 0.00 0.00 50 1014.4
20260506164409 11 289 1.6 1.6 0.00 0.00 0.00 50 1014.5
20260506163907 10 295 6.4 8.0 0.00 0.00 0.00 49 1014.4
20260506163402 10 55 6.4 9.7 0.00 0.00 0.00 51 1014.4
20260506162856 10 75 4.8 4.8 0.00 0.00 0.00 52 1014.3
20260506162355 10 27 3.2 3.2 0.00 0.00 0.00 51 1014.1
20260506161847 10 324 1.6 1.6 0.00 0.00 0.00 52 1014.5
20260506161344 10 55 4.8 4.8 0.00 0.00 0.00 51 1014.5
20260506160842 10 7 3.2 4.8 0.00 0.00 0.00 53 1014.4
20260506160339 10 238 1.6 3.2 0.00 0.00 0.00 51 1014.3
20260506155837 10 271 3.2 4.8 0.00 0.00 0.00 52 1014.3
20260506155333 10 300 3.2 3.2 0.00 0.00 0.00 52 1014.2
20260506153451 11 72 4.8 9.7 0.00 0.00 0.00 52 1014.0
20260506152948 11 18 4.8 4.8 0.00 0.00 0.00 51 1013.9
20260506152445 11 228 3.2 3.2 0.00 0.00 0.00 53 1014.1
20260506151943 11 34 4.8 4.8 0.00 0.00 0.00 50 1013.9
20260506151440 11 56 4.8 4.8 0.00 0.00 0.00 51 1013.8
20260506150938 11 263 0.0 1.6 0.00 0.00 0.00 55 1013.9
20260506150433 11 136 3.2 3.2 0.00 0.00 0.00 53 1013.9
20260506145931 11 43 1.6 3.2 0.00 0.00 0.00 53 1013.8
20260506145427 12 22 6.4 8.0 0.00 0.00 0.00 50 1013.7
20260506144925 12 228 1.6 3.2 0.00 0.00 0.00 51 1013.9
20260506144421 12 242 4.8 8.0 0.00 0.00 0.00 54 1013.8
20260506143920 11 228 1.6 1.6 0.00 0.00 0.00 57 1013.9
20260506143416 10 277 1.6 1.6 0.00 0.00 0.00 57 1013.8
20260506142914 10 254 1.6 1.6 0.00 0.00 0.00 56 1013.5
20260506142412 10 278 1.6 3.2 0.00 0.00 0.00 59 1013.3
20260506141910 10 289 1.6 3.2 0.00 0.00 0.00 59 1013.6
20260506141408 11 21 4.8 4.8 0.00 0.00 0.00 58 1013.7
20260506140906 10 335 1.6 3.2 0.00 0.00 0.00 61 1013.5
20260506140403 10 187 1.6 1.6 0.00 0.00 0.00 62 1013.4
20260506135900 10 0 4.8 4.8 0.00 0.00 0.00 63 1013.4
20260506135356 10 359 3.2 3.2 0.00 0.00 0.00 63 1013.2
20260506134853 9 249 0.0 1.6 0.00 0.00 0.00 66 1013.3
20260506134349 9 266 0.0 0.0 0.00 0.00 0.00 66 1013.2
20260506133846 9 192 3.2 3.2 0.00 0.00 0.00 66 1013.3
20260506133343 10 306 1.6 3.2 0.00 0.00 0.00 65 1013.1
20260506132839 10 14 1.6 3.2 0.00 0.00 0.00 67 1013.1
20260506132336 10 331 1.6 3.2 0.00 0.00 0.00 66 1013.0
20260506131835 10 36 3.2 3.2 0.00 0.00 0.00 66 1012.7
20260506131330 10 350 4.8 4.8 0.00 0.00 0.00 64 1012.8
20260506130828 10 247 1.6 1.6 0.00 0.00 0.00 66 1012.7
20260506130324 9 206 3.2 3.2 0.00 0.00 0.00 64 1012.5
20260506125822 9 47 1.6 3.2 0.00 0.00 0.00 63 1012.4
20260506125320 8 287 1.6 1.6 0.00 0.00 0.00 63 1012.6
20260506124819 8 40 4.8 4.8 0.00 0.00 0.00 62 1012.6
20260506124315 9 38 3.2 3.2 0.00 0.00 0.00 61 1012.4
20260506123813 8 8 3.2 3.2 0.00 0.00 0.00 63 1012.5
20260506123311 8 357 3.2 4.8 0.00 0.00 0.00 64 1012.3
20260506122808 8 47 4.8 4.8 0.00 0.00 0.00 64 1012.1
20260506122306 8 46 0.0 1.6 0.00 0.00 0.00 65 1012.1
20260506121803 7 282 1.6 1.6 0.00 0.00 0.00 64 1012.1
20260506121259 7 92 3.2 4.8 0.00 0.00 0.00 65 1012.2
20260506120757 7 39 3.2 4.8 0.00 0.00 0.00 64 1012.0
20260506120255 7 252 0.0 0.0 0.00 0.00 0.00 67 1012.0
20260506115752 7 254 0.0 0.0 0.00 0.00 0.00 66 1012.0
20260506115250 7 338 1.6 3.2 0.00 0.00 0.00 65 1011.9
20260506114747 7 299 1.6 1.6 0.00 0.00 0.00 64 1011.8
20260506114245 7 283 3.2 4.8 0.00 0.00 0.00 64 1011.9
20260506113743 7 257 3.2 3.2 0.00 0.00 0.00 64 1011.8
20260506113241 6 253 0.0 1.6 0.00 0.00 0.00 65 1011.4
20260506112737 6 256 0.0 0.0 0.00 0.00 0.00 67 1011.7
20260506112234 5 275 0.0 0.0 0.00 0.00 0.00 67 1011.4
20260506111731 5 290 0.0 1.6 0.00 0.00 0.00 69 1011.5
20260506111230 5 263 0.0 0.0 0.00 0.00 0.00 68 1011.4
20260506110726 5 265 0.0 0.0 0.00 0.00 0.00 68 1011.6
20260506110224 5 288 0.0 0.0 0.00 0.00 0.00 68 1011.3
20260506105720 5 263 0.0 0.0 0.00 0.00 0.00 68 1011.3
20260506105217 5 260 0.0 0.0 0.00 0.00 0.00 67 1011.4
20260506104716 6 259 0.0 0.0 0.00 0.00 0.00 66 1011.1
20260506104213 6 279 0.0 0.0 0.00 0.00 0.00 65 1011.0
20260506103710 6 273 0.0 0.0 0.00 0.00 0.00 65 1011.1
20260506103206 6 311 0.0 1.6 0.00 0.00 0.00 64 1011.0
20260506102705 6 46 1.6 1.6 0.00 0.00 0.00 63 1010.9
20260506102203 6 305 1.6 1.6 0.00 0.00 0.00 63 1010.9
20260506101659 6 268 0.0 1.6 0.00 0.00 0.00 62 1011.2
20260506101155 7 6 1.6 1.6 0.00 0.00 0.00 61 1011.1
20260506100654 7 270 0.0 0.0 0.00 0.00 0.00 61 1010.9
20260506100151 7 254 0.0 0.0 0.00 0.00 0.00 61 1011.1
20260506095650 7 290 1.6 1.6 0.00 0.00 0.00 60 1011.0
20260506095146 7 351 1.6 3.2 0.00 0.00 0.00 60 1010.8
20260506094644 7 269 1.6 1.6 0.00 0.00 0.00 60 1010.7
20260506094141 7 316 0.0 1.6 0.00 0.00 0.00 60 1010.5
20260506093640 7 348 1.6 1.6 0.00 0.00 0.00 60 1010.4
20260506093137 7 280 3.2 3.2 0.00 0.00 0.00 59 1010.4
20260506092634 7 335 3.2 3.2 0.00 0.00 0.00 59 1010.0
20260506092131 7 279 0.0 1.6 0.00 0.00 0.00 60 1010.3
20260506091629 7 356 1.6 4.8 0.00 0.00 0.00 60 1010.2
20260506091126 7 274 1.6 1.6 0.00 0.00 0.00 60 1010.5
20260506090625 7 281 0.0 1.6 0.00 0.00 0.00 60 1010.6
20260506090120 7 311 4.8 4.8 0.00 0.00 0.00 60 1010.3
20260506085617 7 344 1.6 1.6 0.00 0.00 0.00 60 1010.1
20260506085114 7 339 1.6 3.2 0.00 0.00 0.00 61 1010.4
20260506084610 7 277 1.6 1.6 0.00 0.00 0.00 60 1010.1
20260506084107 7 289 1.6 1.6 0.00 0.00 0.00 60 1010.0
20260506083604 7 255 0.0 0.0 0.00 0.00 0.00 61 1010.1
20260506083102 7 55 3.2 3.2 0.00 0.00 0.00 60 1010.1
20260506082558 7 293 0.0 0.0 0.00 0.00 0.00 61 1010.3
20260506082054 7 266 0.0 1.6 0.00 0.00 0.00 59 1010.2
20260506081552 7 314 3.2 3.2 0.00 0.00 0.00 60 1010.2
20260506081049 7 218 1.6 3.2 0.00 0.00 0.00 60 1010.3
20260506080547 7 296 0.0 1.6 0.00 0.00 0.00 60 1010.2
20260506073027 8 285 1.6 1.6 0.00 0.00 0.00 59 1010.1
20260506072525 8 297 1.6 1.6 0.00 0.00 0.00 59 1010.2
20260506072022 8 270 0.0 1.6 0.00 0.00 0.00 59 1010.2
20260506071520 8 300 1.6 1.6 0.00 0.00 0.00 58 1010.0
20260506071017 8 342 1.6 1.6 0.00 0.00 0.00 58 1009.9
20260506070514 8 270 0.0 0.0 0.00 0.00 0.00 58 1010.2
20260506062451 8 315 1.6 1.6 0.00 0.00 0.00 60 1010.2
20260506061948 8 255 0.0 1.6 0.00 0.00 0.00 60 1010.3
20260506061444 8 42 3.2 3.2 0.00 0.00 0.00 60 1010.1
20260506060942 8 338 1.6 1.6 0.00 0.00 0.00 59 1010.2
20260506060440 8 36 3.2 3.2 0.00 0.00 0.00 59 1010.5
20260506051406 8 262 0.0 0.0 0.00 0.00 0.00 60 1010.0
20260506050903 8 324 0.0 0.0 0.00 0.00 0.00 60 1010.1
20260506050401 8 280 0.0 0.0 0.00 0.00 0.00 60 1010.3
20260506044851 8 253 0.0 0.0 0.00 0.00 0.00 60 1010.5
20260506044349 8 53 3.2 3.2 0.00 0.00 0.00 60 1010.4
20260506043846 8 281 0.0 0.0 0.00 0.00 0.00 60 1010.3
20260506043343 8 243 0.0 1.6 0.00 0.00 0.00 60 1010.1
20260506042841 9 283 0.0 0.0 0.00 0.00 0.00 59 1010.2
20260506042340 8 315 3.2 3.2 0.00 0.00 0.00 59 1010.3
20260506041839 8 282 0.0 1.6 0.00 0.00 0.00 59 1010.1
20260506041335 8 290 0.0 1.6 0.00 0.00 0.00 60 1010.2
20260506040832 8 261 0.0 0.0 0.00 0.00 0.00 61 1010.1
20260506040330 9 267 0.0 0.0 0.00 0.00 0.00 60 1009.9
20260506035826 8 322 1.6 1.6 0.00 0.18 0.18 60 1010.0
20260506035323 9 281 0.0 0.0 0.00 0.18 0.18 60 1010.2
20260506034820 9 262 0.0 0.0 0.00 0.18 0.18 58 1010.1
20260506034318 9 37 1.6 1.6 0.00 0.18 0.18 59 1009.9
20260506033814 9 267 0.0 0.0 0.00 0.18 0.18 59 1010.2
20260506033311 9 275 0.0 0.0 0.00 0.18 0.18 59 1009.9
20260506032808 9 267 0.0 0.0 0.00 0.18 0.18 57 1009.9
20260506032306 9 264 0.0 0.0 0.00 0.18 0.18 58 1010.0
20260506031802 9 270 0.0 0.0 0.00 0.18 0.18 57 1010.2
20260506031259 9 273 1.6 1.6 0.00 0.18 0.18 56 1010.1
20260506030757 9 42 1.6 1.6 0.00 0.18 0.18 57 1010.2
20260506030255 9 8 1.6 1.6 0.00 0.18 0.18 57 1010.3
20260506025751 9 306 1.6 1.6 0.00 0.18 0.18 56 1010.3
20260506025248 9 264 0.0 1.6 0.00 0.18 0.18 56 1010.2
20260506024744 9 263 0.0 0.0 0.00 0.18 0.18 56 1009.9
20260506024241 9 288 1.6 1.6 0.00 0.18 0.18 55 1010.0
20260506023737 9 298 1.6 1.6 0.00 0.18 0.18 56 1010.2
20260506023234 9 274 0.0 1.6 0.00 0.18 0.18 55 1010.3
20260506022731 10 320 0.0 1.6 0.00 0.18 0.18 54 1010.3
20260506022229 10 313 1.6 1.6 0.00 0.18 0.18 54 1010.2
20260506021726 10 324 1.6 1.6 0.00 0.18 0.18 54 1009.9
20260506021223 10 2 1.6 1.6 0.00 0.18 0.18 53 1009.8
20260506020720 10 264 0.0 0.0 0.00 0.18 0.18 53 1009.9
20260506020218 10 314 1.6 1.6 0.00 0.18 0.18 54 1010.0
20260506015716 10 38 3.2 3.2 0.00 0.18 0.18 52 1010.2
20260506015213 10 301 1.6 1.6 0.00 0.18 0.18 53 1010.1
20260506014710 10 313 1.6 1.6 0.00 0.18 0.18 52 1010.0
20260506014205 10 269 1.6 1.6 0.00 0.18 0.18 53 1009.8
20260506013703 10 277 0.0 0.0 0.00 0.18 0.18 53 1009.6
20260506013200 10 338 1.6 1.6 0.00 0.18 0.18 52 1009.9
20260506012656 10 59 1.6 1.6 0.00 0.18 0.18 52 1009.6
20260506012153 10 262 0.0 0.0 0.00 0.18 0.18 51 1009.4
20260506011651 10 358 0.0 1.6 0.00 0.18 0.18 51 1009.6
20260506011147 10 277 0.0 1.6 0.00 0.18 0.18 51 1009.6
20260506010646 10 257 0.0 0.0 0.00 0.18 0.18 51 1009.3
20260506010142 10 36 3.2 3.2 0.00 0.18 0.18 50 1009.5
20260506005639 10 51 1.6 1.6 0.00 0.18 0.18 51 1009.5
20260506005137 10 252 3.2 3.2 0.00 0.18 0.18 50 1009.7
20260506004633 10 333 1.6 1.6 0.00 0.18 0.18 50 1009.4
20260506004130 10 249 0.0 1.6 0.00 0.18 0.18 50 1009.5
20260506003627 10 272 1.6 3.2 0.00 0.18 0.18 49 1009.7
20260506003123 10 38 1.6 1.6 0.00 0.18 0.18 50 1009.6
20260506002619 10 354 1.6 1.6 0.00 0.18 0.18 48 1009.6
20260506002115 10 51 3.2 3.2 0.00 0.18 0.18 47 1009.6
20260506001611 10 59 3.2 3.2 0.00 0.18 0.18 47 1009.7
20260506001108 10 274 4.8 4.8 0.00 0.18 0.18 47 1009.4
20260506000606 11 238 3.2 3.2 0.00 0.18 0.18 48 1009.5
20260505235601 11 249 1.6 1.6 0.00 0.18 0.18 49 1009.4
20260505235058 11 39 1.6 1.6 0.00 0.18 0.18 47 1009.5
20260505234555 11 102 3.2 3.2 0.00 0.18 0.18 48 1009.3
20260505234051 11 254 1.6 3.2 0.00 0.18 0.18 47 1009.0
20260505233549 11 265 0.0 1.6 0.00 0.18 0.18 46 1008.7
20260505233046 11 22 4.8 4.8 0.00 0.18 0.18 45 1009.2
20260505232544 11 54 3.2 3.2 0.00 0.18 0.18 45 1008.8
20260505232041 11 1 3.2 3.2 0.00 0.18 0.18 45 1008.9
20260505231538 11 324 0.0 1.6 0.00 0.18 0.18 46 1008.9
20260505231037 11 72 3.2 4.8 0.00 0.18 0.18 46 1008.7
20260505230534 11 275 3.2 3.2 0.00 0.18 0.18 46 1008.9
20260505230030 11 18 1.6 1.6 0.00 0.18 0.18 51 1008.7
20260505225527 12 27 4.8 4.8 0.00 0.18 0.18 51 1008.9
20260505225023 12 22 3.2 3.2 0.00 0.18 0.18 51 1008.9
20260505224520 12 22 1.6 1.6 0.00 0.18 0.18 51 1008.9
20260505224017 12 232 0.0 1.6 0.00 0.18 0.18 52 1009.0
20260505223514 12 253 1.6 1.6 0.00 0.18 0.18 50 1009.0
20260505223010 12 253 0.0 0.0 0.00 0.18 0.18 53 1009.0
20260505222507 12 295 1.6 1.6 0.00 0.18 0.18 51 1009.0
20260505222003 12 347 1.6 3.2 0.00 0.18 0.18 52 1009.3
20260505221500 12 266 1.6 1.6 0.00 0.18 0.18 51 1009.2
20260505220957 12 327 6.4 11.3 0.00 0.18 0.18 51 1009.2
20260505220454 12 332 3.2 4.8 0.00 0.18 0.18 50 1008.9
20260505215951 12 34 3.2 3.2 0.00 0.18 0.18 51 1008.8
20260505215450 12 276 1.6 3.2 0.00 0.18 0.18 51 1008.9
20260505214947 12 354 0.0 1.6 0.00 0.18 0.18 54 1008.8
20260505214445 12 77 3.2 3.2 0.00 0.18 0.18 53 1008.9
20260505213942 12 67 4.8 4.8 0.00 0.18 0.18 54 1008.8
20260505213439 12 324 1.6 1.6 0.00 0.18 0.18 53 1009.2
20260505212935 12 38 8.0 11.3 0.00 0.18 0.18 51 1009.2
20260505212432 12 303 1.6 3.2 0.00 0.18 0.18 52 1008.9
20260505211928 12 355 4.8 4.8 0.00 0.18 0.18 56 1009.0
20260505211426 12 63 3.2 3.2 0.00 0.18 0.18 58 1008.8
20260505210922 12 330 1.6 1.6 0.00 0.18 0.18 60 1008.8
20260505210423 12 54 4.8 8.0 0.00 0.18 0.18 59 1008.8
20260505205916 12 53 9.7 14.5 0.00 0.18 0.18 60 1009.0
20260505205415 12 62 4.8 8.0 0.00 0.18 0.18 60 1009.3